Location: Asheville, NC
(35.6000°N, 82.5500°W)
Time: 04:39:27
(UTC-05:00)

SO-50 - Pass Details

Date: 05 January 2018
Orbit: 610 x 677 km, 64.6° (Epoch: 22 January)

Event Time Altitude Azimuth Distance (km) Brightness Sun altitude
Rises 19:52:27 0° 318° (NW) 2,979 ? -28.0°
Reaches altitude 10° 19:54:58 10° 307° (NW) 2,075 ? -28.5°
Maximum altitude 19:59:02 29° 248° (WSW) 1,205 ? -29.3°
Drops below altitude 10° 20:03:08 10° 188° (S) 2,090 ? -30.1°
Enters shadow 20:04:42 - 180° (S) 2,639 ? -30.5°
